Regional Weather Roundup
Issued by NWS

Home | Current Version | Previous Version | Text Only | Print | Product List | Glossary On
Versions: 1 2 3 4 5 6 7 8 9 10 11 12 13 14 15 16 17 18 19 20 21 22 23 24 25 26 27 28 29 30 31 32 33 34 35 36 37 38 39 40 41 42 43 44 45 46 47 48 49 50
000
ASUS43 KOAX 172202
RWRNE

WEATHER ROUNDUP FOR NEBRASKA
NATIONAL WEATHER SERVICE OMAHA NE
500 PM CDT THU APR 17 2014

NOTES: SATELLITE DATA IS BEING USED TO AUGMENT CLOUD COVER ABOVE
       12000 FEET.
       "FAIR" INDICATES FEW OR NO CLOUDS BELOW 12,000 FEET WITH NO
       SIGNIFICANT WEATHER AND/OR OBSTRUCTIONS TO VISIBILITY.

  * THESE STATIONS DO NOT REPORT WEATHER SUCH AS RAIN...SNOW OR FOG.

NEZ001>004-019>022-054>056-172300-
NEBRASKA PANHANDLE

CITY           SKY/WX    TMP DP  RH WIND       PRES   REMARKS
SCOTTSBLUFF    SUNNY     58  38  47 SE16G28   30.02F
ALLIANCE       MOSUNNY   50  35  56 S16G22    30.06F
CHADRON        SUNNY     54  38  54 S15       30.02F
KIMBALL        MOSUNNY   57  28  32 S9G16     30.01F
SIDNEY         SUNNY     59  37  44 SE16      30.05F
$$

NEZ057>060-069>072-079>082-172300-
SOUTHWEST NEBRASKA

CITY           SKY/WX    TMP DP  RH WIND       PRES   REMARKS
NORTH PLATTE   MOSUNNY   53  31  42 S14G21    30.16F
IMPERIAL       CLOUDY    56  36  47 S18G29    30.12F
LEXINGTON      SUNNY     52  32  46 S8        30.20S
MCCOOK         MOSUNNY   55  35  47 S12G18    30.18F
OGALLALA       MOSUNNY   54  34  46 S20       30.11F
$$

NEZ005>010-023>029-035>040-094-172300-
NORTH CENTRAL NEBRASKA

CITY           SKY/WX    TMP DP  RH WIND       PRES   REMARKS
VALENTINE      MOSUNNY   53  23  31 SE18G28   30.13F
AINSWORTH      MOSUNNY   53  24  32 S14G20    30.15F
BROKEN BOW     SUNNY     51  26  37 S9G17     30.18F
O`NEILL        PTSUNNY   50  16  25 S5        30.22F
ORD            CLOUDY    52  24  33 SE12      30.20F
THEDFORD       SUNNY     55  24  30 S15       30.14F
$$

NEZ041-046>049-061>064-073>077-083>087-172300-
SOUTH CENTRAL NEBRASKA

CITY           SKY/WX    TMP DP  RH WIND       PRES   REMARKS
GRAND ISLAND   SUNNY     54  26  34 S6        30.23F
AURORA         SUNNY     55  25  32 S5        30.22F
HASTINGS       SUNNY     54  27  35 S6        30.21F
HEBRON         SUNNY     55  27  34 CALM      30.23F HAZE
HOLDREGE       SUNNY     53  26  36 S6        30.20F
KEARNEY *      SUNNY     54  28  37 SE7       30.21F
YORK           MOSUNNY   54  23  30 E3        30.23F
$$

NEZ011>018-030>034-042>045-172300-
NORTHEAST NEBRASKA

CITY           SKY/WX    TMP DP  RH WIND       PRES   REMARKS
NORFOLK        MOSUNNY   53  20  27 SE9       30.23F
ALBION         MOSUNNY   51  20  29 SE3       30.22F
BLAIR          SUNNY     52  24  33 CALM      30.24F
COLUMBUS *     SUNNY     54  25  32 CALM      30.24F
FREMONT        SUNNY     54  23  29 CALM      30.25F
TEKAMAH        SUNNY     55  20  25 N6        30.24F
$$

NEZ050>053-065>068-078-088>093-172300-
SOUTHEAST NEBRASKA

CITY           SKY/WX    TMP DP  RH WIND       PRES   REMARKS
LINCOLN        SUNNY     56  22  26 S6        30.25F
OMAHA EPPLEY   MOSUNNY   55  24  30 CALM      30.24F
BEATRICE       SUNNY     56  26  32 NW3       30.24S
FALLS CITY     SUNNY     55  29  36 SE3       30.24F
NEBRASKA CITY  SUNNY     53  28  37 E3        30.25F
PLATTSMOUTH    SUNNY     55  23  29 E7        30.24F
$$

NEZ044-045-051>053-067-172300-
OMAHA AREA

CITY           SKY/WX    TMP DP  RH WIND       PRES   REMARKS
OMAHA EPPLEY   MOSUNNY   55  24  30 CALM      30.24F
BLAIR          SUNNY     52  24  33 CALM      30.24F
FREMONT        SUNNY     54  23  29 CALM      30.25F
MILLARD        SUNNY     53  25  34 CALM      30.24F
OFFUTT AFB     SUNNY     54  27  35 NW5       30.25F
PLATTSMOUTH    SUNNY     55  23  29 E7        30.24F
WAHOO          FAIR      54  18  24 CALM      30.24F
$$



USA.gov is the U.S. government's official web portal to all federal, state and local government web resources and services.